| time (UTC) | temp F | wind direction | speed MPH | gust MPH | rain 1hr in | rain 24hr in | rain mn in | humidity % | barometer mb |
| 20260507084950 | 35 | 100 | 4.0 | 7.0 | 0.00 | 0.00 | 0.00 | 1 | 1014.0 |
| 20260507084447 | 35 | 96 | 7.0 | 7.0 | 0.00 | 0.00 | 0.00 | 1 | 1013.9 |
| 20260507083944 | 35 | 103 | 5.0 | 7.0 | 0.00 | 0.00 | 0.00 | 1 | 1013.9 |
| 20260507083440 | 35 | 90 | 4.0 | 7.0 | 0.00 | 0.00 | 0.00 | 1 | 1013.9 |
| 20260507082937 | 35 | 99 | 8.0 | 8.0 | 0.00 | 0.00 | 0.00 | 1 | 1014.0 |
| 20260507082433 | 35 | 98 | 5.0 | 9.0 | 0.00 | 0.00 | 0.00 | 1 | 1014.0 |
| 20260507081930 | 35 | 92 | 5.0 | 8.0 | 0.00 | 0.00 | 0.00 | 1 | 1013.9 |
| 20260507081426 | 35 | 88 | 6.0 | 8.0 | 0.00 | 0.00 | 0.00 | 1 | 1014.1 |
| 20260507080923 | 35 | 92 | 6.0 | 8.0 | 0.00 | 0.00 | 0.00 | 1 | 1014.1 |
| 20260507080419 | 35 | 97 | 5.0 | 8.0 | 0.00 | 0.00 | 0.00 | 1 | 1014.1 |
| 20260507075915 | 34 | 94 | 5.0 | 6.0 | 0.00 | 0.00 | 0.00 | 1 | 1014.2 |
| 20260507075411 | 35 | 103 | 6.0 | 7.0 | 0.00 | 0.00 | 0.00 | 1 | 1014.2 |
| 20260507074908 | 35 | 90 | 5.0 | 7.0 | 0.00 | 0.00 | 0.00 | 1 | 1014.2 |
| 20260507074404 | 35 | 95 | 5.0 | 8.0 | 0.00 | 0.00 | 0.00 | 1 | 1014.2 |
| 20260507073902 | 35 | 96 | 6.0 | 6.0 | 0.00 | 0.00 | 0.00 | 1 | 1014.4 |
| 20260507073358 | 35 | 92 | 5.0 | 6.0 | 0.00 | 0.00 | 0.00 | 1 | 1014.4 |
| 20260507072856 | 35 | 85 | 7.0 | 8.0 | 0.00 | 0.00 | 0.00 | 1 | 1014.3 |
| 20260507072353 | 35 | 85 | 6.0 | 7.0 | 0.00 | 0.00 | 0.00 | 1 | 1014.5 |
| 20260507071850 | 37 | 74 | 7.0 | 7.0 | 0.00 | 0.00 | 0.00 | 1 | 1014.5 |
| 20260507071348 | 38 | 95 | 6.0 | 8.0 | 0.00 | 0.00 | 0.00 | 1 | 1014.5 |
| 20260507070843 | 38 | 86 | 5.0 | 6.0 | 0.00 | 0.00 | 0.00 | 1 | 1014.3 |
| 20260507070341 | 38 | 75 | 4.0 | 6.0 | 0.00 | 0.00 | 0.00 | 1 | 1014.3 |
| 20260507065838 | 39 | 73 | 5.0 | 7.0 | 0.00 | 0.00 | 0.00 | 1 | 1014.5 |
| 20260507065334 | 38 | 90 | 4.0 | 6.0 | 0.00 | 0.00 | 0.00 | 1 | 1014.6 |
| 20260507064831 | 38 | 78 | 6.0 | 7.0 | 0.00 | 0.00 | 0.00 | 1 | 1014.6 |
| 20260507064330 | 39 | 90 | 4.0 | 8.0 | 0.00 | 0.00 | 0.00 | 1 | 1014.3 |
| 20260507063827 | 40 | 92 | 5.0 | 7.0 | 0.00 | 0.00 | 0.00 | 1 | 1014.3 |
| 20260507063324 | 40 | 95 | 4.0 | 5.0 | 0.00 | 0.00 | 0.00 | 1 | 1014.3 |
| 20260507062821 | 41 | 90 | 4.0 | 8.0 | 0.00 | 0.00 | 0.00 | 1 | 1014.3 |
| 20260507062318 | 41 | 88 | 4.0 | 6.0 | 0.00 | 0.00 | 0.00 | 1 | 1014.4 |
| 20260507061816 | 42 | 88 | 5.0 | 5.0 | 0.00 | 0.00 | 0.00 | 1 | 1014.4 |
| 20260507061314 | 43 | 87 | 3.0 | 4.0 | 0.00 | 0.00 | 0.00 | 1 | 1014.4 |
| 20260507060812 | 43 | 109 | 5.0 | 6.0 | 0.00 | 0.00 | 0.00 | 1 | 1014.5 |
| 20260507060308 | 44 | 105 | 4.0 | 5.0 | 0.00 | 0.00 | 0.00 | 1 | 1014.6 |
| 20260507055805 | 43 | 93 | 3.0 | 3.0 | 0.00 | 0.00 | 0.00 | 1 | 1014.6 |
| 20260507055300 | 44 | 112 | 2.0 | 3.0 | 0.00 | 0.00 | 0.00 | 1 | 1014.8 |
| 20260507054756 | 44 | 129 | 3.0 | 3.0 | 0.00 | 0.00 | 0.00 | 1 | 1014.6 |
| 20260507054253 | 44 | 105 | 1.0 | 3.0 | 0.00 | 0.00 | 0.00 | 1 | 1014.8 |
| 20260507053750 | 44 | 110 | 2.0 | 3.0 | 0.00 | 0.00 | 0.00 | 1 | 1014.8 |
| 20260507053248 | 44 | 107 | 2.0 | 3.0 | 0.00 | 0.00 | 0.00 | 1 | 1014.9 |
| 20260507052747 | 44 | 111 | 1.0 | 2.0 | 0.00 | 0.00 | 0.00 | 1 | 1014.8 |
| 20260507052243 | 44 | 120 | 2.0 | 4.0 | 0.00 | 0.00 | 0.00 | 1 | 1014.8 |
| 20260507051741 | 44 | 127 | 2.0 | 3.0 | 0.00 | 0.00 | 0.00 | 1 | 1014.9 |
| 20260507051237 | 44 | 121 | 2.0 | 3.0 | 0.00 | 0.00 | 0.00 | 1 | 1014.9 |
| 20260507050734 | 45 | 144 | 3.0 | 3.0 | 0.00 | 0.00 | 0.00 | 1 | 1015.0 |
| 20260507050231 | 45 | 135 | 2.0 | 3.0 | 0.00 | 0.00 | 0.00 | 1 | 1015.1 |
| 20260507045728 | 45 | 158 | 2.0 | 3.0 | 0.00 | 0.00 | 0.00 | 1 | 1015.0 |
| 20260507045224 | 45 | 150 | 2.0 | 3.0 | 0.00 | 0.00 | 0.00 | 1 | 1014.9 |
| 20260507044722 | 45 | 162 | 3.0 | 3.0 | 0.00 | 0.00 | 0.00 | 1 | 1015.2 |
| 20260507044218 | 45 | 142 | 2.0 | 4.0 | 0.00 | 0.00 | 0.00 | 1 | 1015.3 |
| 20260507043714 | 45 | 151 | 3.0 | 4.0 | 0.00 | 0.00 | 0.00 | 1 | 1015.1 |
| 20260507043211 | 44 | 150 | 3.0 | 4.0 | 0.00 | 0.00 | 0.00 | 1 | 1015.0 |
| 20260507042708 | 44 | 150 | 2.0 | 4.0 | 0.00 | 0.00 | 0.00 | 1 | 1015.5 |
| 20260507042202 | 45 | 162 | 2.0 | 4.0 | 0.00 | 0.00 | 0.00 | 1 | 1015.4 |
| 20260507041700 | 45 | 169 | 1.0 | 4.0 | 0.00 | 0.00 | 0.00 | 1 | 1015.4 |
| 20260507041156 | 45 | 146 | 0.0 | 3.0 | 0.00 | 0.00 | 0.00 | 1 | 1015.6 |
| 20260507040653 | 45 | 131 | 1.0 | 3.0 | 0.00 | 0.00 | 0.00 | 1 | 1015.7 |
| 20260507040150 | 45 | 147 | 2.0 | 3.0 | 0.00 | 0.00 | 0.00 | 1 | 1015.7 |
| 20260507035646 | 45 | 114 | 1.0 | 3.0 | 0.00 | 0.00 | 0.00 | 1 | 1015.8 |
| 20260507035142 | 45 | 123 | 1.0 | 2.0 | 0.00 | 0.00 | 0.00 | 1 | 1015.6 |
| 20260507034639 | 46 | 108 | 3.0 | 4.0 | 0.00 | 0.00 | 0.00 | 1 | 1016.0 |
| 20260507034136 | 45 | 105 | 3.0 | 4.0 | 0.00 | 0.00 | 0.00 | 1 | 1015.8 |
| 20260507033635 | 45 | 114 | 1.0 | 3.0 | 0.00 | 0.00 | 0.00 | 1 | 1015.9 |
| 20260507033131 | 46 | 112 | 4.0 | 5.0 | 0.00 | 0.00 | 0.00 | 1 | 1015.9 |
| 20260507032629 | 48 | 114 | 3.0 | 5.0 | 0.00 | 0.00 | 0.00 | 1 | 1016.0 |
| 20260507032125 | 49 | 104 | 3.0 | 3.0 | 0.00 | 0.00 | 0.00 | 1 | 1016.1 |
| 20260507031622 | 49 | 105 | 3.0 | 3.0 | 0.00 | 0.00 | 0.00 | 1 | 1016.2 |
| 20260507031118 | 50 | 94 | 2.0 | 3.0 | 0.00 | 0.00 | 0.00 | 1 | 1016.1 |
| 20260507030615 | 49 | 95 | 2.0 | 2.0 | 0.00 | 0.00 | 0.00 | 1 | 1016.2 |
| 20260507030113 | 49 | 286 | 0.0 | 0.0 | 0.00 | 0.00 | 0.00 | 1 | 1016.3 |
| 20260507025610 | 49 | 286 | 0.0 | 0.0 | 0.00 | 0.00 | 0.00 | 1 | 1016.1 |
| 20260507025107 | 50 | 286 | 0.0 | 0.0 | 0.00 | 0.00 | 0.00 | 1 | 1016.4 |
| 20260507024605 | 50 | 286 | 0.0 | 0.0 | 0.00 | 0.00 | 0.00 | 1 | 1016.2 |
| 20260507024102 | 50 | 286 | 0.0 | 0.0 | 0.00 | 0.00 | 0.00 | 1 | 1016.3 |
| 20260507023557 | 50 | 286 | 0.0 | 0.0 | 0.00 | 0.00 | 0.00 | 1 | 1016.3 |
| 20260507023055 | 51 | 286 | 0.0 | 0.0 | 0.00 | 0.00 | 0.00 | 1 | 1016.5 |
| 20260507022551 | 51 | 286 | 0.0 | 0.0 | 0.00 | 0.00 | 0.00 | 1 | 1016.2 |
| 20260507022046 | 51 | 286 | 0.0 | 1.0 | 0.00 | 0.00 | 0.00 | 1 | 1016.3 |
| 20260507021543 | 50 | 306 | 0.0 | 0.0 | 0.00 | 0.00 | 0.00 | 1 | 1016.4 |
| 20260507021040 | 50 | 15 | 0.0 | 2.0 | 0.00 | 0.00 | 0.00 | 1 | 1016.3 |
| 20260507020538 | 50 | 23 | 0.0 | 1.0 | 0.00 | 0.00 | 0.00 | 1 | 1016.3 |
| 20260507020034 | 50 | 315 | 0.0 | 0.0 | 0.00 | 0.00 | 0.00 | 1 | 1016.2 |
| 20260507015532 | 50 | 315 | 0.0 | 0.0 | 0.00 | 0.00 | 0.00 | 1 | 1016.4 |
| 20260507015029 | 50 | 294 | 0.0 | 1.0 | 0.00 | 0.00 | 0.00 | 1 | 1016.3 |
| 20260507014526 | 51 | 270 | 1.0 | 2.0 | 0.00 | 0.00 | 0.00 | 1 | 1016.2 |
| 20260507014021 | 51 | 32 | 0.0 | 2.0 | 0.00 | 0.00 | 0.00 | 1 | 1016.2 |
| 20260507013518 | 52 | 29 | 2.0 | 2.0 | 0.00 | 0.00 | 0.00 | 1 | 1016.3 |
| 20260507013016 | 51 | 297 | 2.0 | 3.0 | 0.00 | 0.00 | 0.00 | 1 | 1016.3 |
| 20260507012513 | 52 | 35 | 0.0 | 3.0 | 0.00 | 0.00 | 0.00 | 1 | 1016.2 |
| 20260507012009 | 52 | 303 | 2.0 | 3.0 | 0.00 | 0.00 | 0.00 | 1 | 1016.4 |
| 20260507011506 | 53 | 287 | 2.0 | 3.0 | 0.00 | 0.00 | 0.00 | 1 | 1016.3 |
| 20260507011002 | 53 | 345 | 0.0 | 3.0 | 0.00 | 0.00 | 0.00 | 1 | 1016.4 |
| 20260507010456 | 53 | 237 | 3.0 | 4.0 | 0.00 | 0.00 | 0.00 | 1 | 1016.3 |
| 20260507005954 | 54 | 330 | 0.0 | 7.0 | 0.00 | 0.00 | 0.00 | 1 | 1016.5 |
| 20260507005451 | 55 | 314 | 4.0 | 11.0 | 0.00 | 0.00 | 0.00 | 1 | 1016.7 |
| 20260507004947 | 55 | 263 | 3.0 | 7.0 | 0.00 | 0.00 | 0.00 | 1 | 1016.4 |
| 20260507004444 | 55 | 284 | 9.0 | 10.0 | 0.00 | 0.00 | 0.00 | 1 | 1016.5 |
| 20260507003942 | 55 | 270 | 5.0 | 8.0 | 0.00 | 0.00 | 0.00 | 1 | 1016.8 |
| 20260507003437 | 55 | 274 | 5.0 | 8.0 | 0.00 | 0.00 | 0.00 | 1 | 1016.8 |
| 20260507002932 | 55 | 288 | 3.0 | 6.0 | 0.00 | 0.00 | 0.00 | 1 | 1017.0 |
| 20260507002428 | 56 | 305 | 2.0 | 6.0 | 0.00 | 0.00 | 0.00 | 1 | 1016.9 |
| 20260507001926 | 55 | 296 | 5.0 | 11.0 | 0.00 | 0.00 | 0.00 | 1 | 1017.0 |
| 20260507001422 | 55 | 253 | 10.0 | 12.0 | 0.00 | 0.00 | 0.00 | 1 | 1017.0 |
| 20260507000920 | 56 | 4 | 4.0 | 8.0 | 0.00 | 0.00 | 0.00 | 1 | 1017.2 |
| 20260507000415 | 56 | 291 | 3.0 | 10.0 | 0.00 | 0.00 | 0.00 | 1 | 1017.2 |
| 20260506235911 | 56 | 298 | 9.0 | 12.0 | 0.00 | 0.00 | 0.00 | 1 | 1017.2 |
| 20260506235409 | 54 | 293 | 6.0 | 12.0 | 0.00 | 0.00 | 0.00 | 1 | 1017.2 |
| 20260506234904 | 53 | 259 | 10.0 | 12.0 | 0.00 | 0.00 | 0.00 | 1 | 1017.3 |
| 20260506234402 | 55 | 334 | 3.0 | 12.0 | 0.00 | 0.00 | 0.00 | 1 | 1017.2 |
| 20260506233900 | 56 | 301 | 2.0 | 6.0 | 0.00 | 0.00 | 0.00 | 1 | 1017.5 |
| 20260506233355 | 56 | 70 | 7.0 | 10.0 | 0.00 | 0.00 | 0.00 | 1 | 1017.5 |
| 20260506232852 | 56 | 287 | 10.0 | 13.0 | 0.00 | 0.00 | 0.00 | 1 | 1017.5 |
| 20260506232348 | 55 | 283 | 7.0 | 16.0 | 0.00 | 0.00 | 0.00 | 1 | 1017.7 |
| 20260506231844 | 54 | 347 | 5.0 | 17.0 | 0.00 | 0.00 | 0.00 | 1 | 1017.4 |
| 20260506231342 | 54 | 272 | 6.0 | 13.0 | 0.00 | 0.00 | 0.00 | 1 | 1017.5 |
| 20260506230839 | 56 | 350 | 4.0 | 11.0 | 0.00 | 0.00 | 0.00 | 1 | 1017.6 |
| 20260506230336 | 54 | 336 | 4.0 | 14.0 | 0.00 | 0.00 | 0.00 | 1 | 1017.6 |
| 20260506225832 | 55 | 260 | 5.0 | 13.0 | 0.00 | 0.00 | 0.00 | 1 | 1017.7 |
| 20260506225330 | 55 | 299 | 8.0 | 15.0 | 0.00 | 0.00 | 0.00 | 1 | 1017.6 |
| 20260506224827 | 55 | 278 | 9.0 | 15.0 | 0.00 | 0.00 | 0.00 | 1 | 1017.9 |
| 20260506224324 | 56 | 325 | 4.0 | 16.0 | 0.00 | 0.00 | 0.00 | 1 | 1017.8 |
| 20260506223820 | 55 | 267 | 9.0 | 16.0 | 0.00 | 0.00 | 0.00 | 1 | 1017.7 |
| 20260506223309 | 55 | 298 | 8.0 | 14.0 | 0.00 | 0.00 | 0.00 | 1 | 1018.0 |
| 20260506222807 | 55 | 294 | 12.0 | 17.0 | 0.00 | 0.00 | 0.00 | 1 | 1017.9 |
| 20260506222305 | 55 | 327 | 3.0 | 17.0 | 0.00 | 0.00 | 0.00 | 1 | 1018.0 |
| 20260506221801 | 53 | 293 | 6.0 | 9.0 | 0.00 | 0.00 | 0.00 | 1 | 1018.2 |
| 20260506221258 | 53 | 304 | 5.0 | 18.0 | 0.00 | 0.00 | 0.00 | 1 | 1018.2 |
| 20260506220755 | 54 | 336 | 10.0 | 15.0 | 0.00 | 0.00 | 0.00 | 1 | 1018.2 |
| 20260506220250 | 56 | 345 | 5.0 | 9.0 | 0.00 | 0.00 | 0.00 | 1 | 1018.2 |
| 20260506215747 | 55 | 0 | 7.0 | 19.0 | 0.00 | 0.00 | 0.00 | 1 | 1018.2 |
| 20260506215242 | 53 | 303 | 8.0 | 19.0 | 0.00 | 0.00 | 0.00 | 1 | 1018.2 |
| 20260506214733 | 53 | 282 | 8.0 | 22.0 | 0.00 | 0.00 | 0.00 | 1 | 1018.4 |
| 20260506214231 | 54 | 294 | 7.0 | 18.0 | 0.00 | 0.00 | 0.00 | 1 | 1018.4 |
| 20260506213729 | 54 | 285 | 9.0 | 21.0 | 0.00 | 0.00 | 0.00 | 1 | 1018.4 |
| 20260506213226 | 54 | 248 | 17.0 | 20.0 | 0.00 | 0.00 | 0.00 | 1 | 1018.7 |
| 20260506212723 | 54 | 344 | 5.0 | 20.0 | 0.00 | 0.00 | 0.00 | 1 | 1018.6 |
| 20260506212218 | 56 | 275 | 4.0 | 14.0 | 0.00 | 0.00 | 0.00 | 1 | 1018.6 |
| 20260506211714 | 54 | 290 | 15.0 | 25.0 | 0.00 | 0.00 | 0.00 | 1 | 1018.8 |
| 20260506211210 | 53 | 267 | 8.0 | 15.0 | 0.00 | 0.00 | 0.00 | 1 | 1018.8 |
| 20260506210708 | 54 | 229 | 12.0 | 17.0 | 0.00 | 0.00 | 0.00 | 1 | 1018.8 |
| 20260506210204 | 54 | 289 | 6.0 | 17.0 | 0.00 | 0.00 | 0.00 | 1 | 1018.9 |
| 20260506205702 | 55 | 295 | 14.0 | 18.0 | 0.00 | 0.00 | 0.00 | 1 | 1019.1 |
| 20260506205156 | 55 | 93 | 3.0 | 10.0 | 0.00 | 0.00 | 0.00 | 1 | 1019.1 |
| 20260506204654 | 55 | 289 | 5.0 | 18.0 | 0.00 | 0.00 | 0.00 | 1 | 1019.1 |
| 20260506204151 | 55 | 334 | 3.0 | 8.0 | 0.00 | 0.00 | 0.00 | 1 | 1019.3 |
| 20260506203649 | 54 | 282 | 14.0 | 19.0 | 0.00 | 0.00 | 0.00 | 1 | 1019.4 |
| 20260506203146 | 53 | 263 | 21.0 | 25.0 | 0.00 | 0.00 | 0.00 | 1 | 1019.4 |
| 20260506202644 | 53 | 273 | 14.0 | 22.0 | 0.00 | 0.00 | 0.00 | 1 | 1019.5 |
| 20260506202140 | 53 | 263 | 7.0 | 16.0 | 0.00 | 0.00 | 0.00 | 1 | 1019.5 |
| 20260506201637 | 53 | 259 | 15.0 | 19.0 | 0.00 | 0.00 | 0.00 | 1 | 1019.8 |
| 20260506201133 | 52 | 258 | 8.0 | 21.0 | 0.00 | 0.00 | 0.00 | 1 | 1019.6 |
| 20260506200630 | 53 | 304 | 4.0 | 17.0 | 0.00 | 0.00 | 0.00 | 1 | 1019.7 |
| 20260506200127 | 53 | 285 | 7.0 | 17.0 | 0.00 | 0.00 | 0.00 | 1 | 1019.7 |
| 20260506195623 | 53 | 277 | 15.0 | 18.0 | 0.00 | 0.00 | 0.00 | 1 | 1019.7 |
| 20260506195120 | 52 | 269 | 12.0 | 20.0 | 0.00 | 0.00 | 0.00 | 1 | 1020.1 |
| 20260506194617 | 53 | 253 | 3.0 | 18.0 | 0.00 | 0.00 | 0.00 | 1 | 1019.9 |
| 20260506194113 | 52 | 307 | 8.0 | 25.0 | 0.00 | 0.00 | 0.00 | 1 | 1020.0 |
| 20260506193611 | 53 | 333 | 15.0 | 22.0 | 0.00 | 0.00 | 0.00 | 1 | 1019.8 |
| 20260506193108 | 52 | 260 | 7.0 | 22.0 | 0.00 | 0.00 | 0.00 | 1 | 1020.0 |
| 20260506192605 | 52 | 279 | 5.0 | 10.0 | 0.00 | 0.00 | 0.00 | 1 | 1020.0 |
| 20260506192101 | 53 | 251 | 27.0 | 29.0 | 0.00 | 0.00 | 0.00 | 1 | 1020.1 |
| 20260506191558 | 52 | 264 | 7.0 | 17.0 | 0.00 | 0.00 | 0.00 | 1 | 1020.2 |
| 20260506191053 | 52 | 294 | 16.0 | 21.0 | 0.00 | 0.00 | 0.00 | 1 | 1020.4 |
| 20260506190551 | 51 | 291 | 9.0 | 18.0 | 0.00 | 0.00 | 0.00 | 1 | 1020.5 |
| 20260506190048 | 51 | 281 | 13.0 | 23.0 | 0.00 | 0.00 | 0.00 | 1 | 1020.5 |
| 20260506185545 | 51 | 281 | 14.0 | 16.0 | 0.00 | 0.00 | 0.00 | 1 | 1020.5 |
| 20260506185042 | 53 | 71 | 3.0 | 12.0 | 0.00 | 0.00 | 0.00 | 1 | 1020.5 |
| 20260506184539 | 52 | 270 | 11.0 | 14.0 | 0.00 | 0.00 | 0.00 | 1 | 1020.7 |
| 20260506184036 | 50 | 266 | 8.0 | 25.0 | 0.00 | 0.00 | 0.00 | 1 | 1020.9 |
| 20260506183532 | 50 | 225 | 9.0 | 16.0 | 0.00 | 0.00 | 0.00 | 1 | 1020.8 |
| 20260506183029 | 51 | 324 | 11.0 | 24.0 | 0.00 | 0.00 | 0.00 | 1 | 1020.9 |
| 20260506182526 | 50 | 287 | 12.0 | 19.0 | 0.00 | 0.00 | 0.00 | 1 | 1021.0 |
| 20260506182023 | 51 | 259 | 12.0 | 16.0 | 0.00 | 0.00 | 0.00 | 1 | 1021.2 |
| 20260506181521 | 51 | 225 | 3.0 | 8.0 | 0.00 | 0.00 | 0.00 | 1 | 1021.2 |
| 20260506181018 | 50 | 294 | 8.0 | 23.0 | 0.00 | 0.00 | 0.00 | 1 | 1021.3 |
| 20260506180514 | 50 | 251 | 15.0 | 21.0 | 0.00 | 0.00 | 0.00 | 1 | 1021.3 |
| 20260506180011 | 51 | 226 | 12.0 | 21.0 | 0.00 | 0.00 | 0.00 | 1 | 1021.4 |
| 20260506175508 | 51 | 337 | 3.0 | 25.0 | 0.00 | 0.00 | 0.00 | 1 | 1021.3 |
| 20260506175004 | 50 | 286 | 15.0 | 20.0 | 0.00 | 0.00 | 0.00 | 1 | 1021.5 |
| 20260506174503 | 50 | 289 | 11.0 | 15.0 | 0.00 | 0.00 | 0.00 | 1 | 1021.6 |
| 20260506173958 | 48 | 262 | 11.0 | 17.0 | 0.00 | 0.00 | 0.00 | 1 | 1021.7 |
| 20260506173456 | 49 | 288 | 11.0 | 21.0 | 0.00 | 0.00 | 0.00 | 1 | 1021.8 |
| 20260506172952 | 49 | 290 | 17.0 | 27.0 | 0.00 | 0.00 | 0.00 | 1 | 1021.8 |
| 20260506172450 | 49 | 252 | 11.0 | 24.0 | 0.00 | 0.00 | 0.00 | 1 | 1021.7 |
| 20260506171946 | 49 | 290 | 11.0 | 18.0 | 0.00 | 0.00 | 0.00 | 1 | 1021.7 |
| 20260506171444 | 50 | 339 | 7.0 | 15.0 | 0.00 | 0.00 | 0.00 | 1 | 1021.8 |
| 20260506170941 | 48 | 248 | 10.0 | 18.0 | 0.00 | 0.00 | 0.00 | 1 | 1021.8 |
| 20260506170437 | 47 | 315 | 8.0 | 23.0 | 0.00 | 0.00 | 0.00 | 1 | 1022.0 |
| 20260506165931 | 48 | 319 | 12.0 | 21.0 | 0.00 | 0.00 | 0.00 | 1 | 1022.0 |
| 20260506165429 | 48 | 301 | 12.0 | 20.0 | 0.00 | 0.00 | 0.00 | 1 | 1022.4 |
| 20260506164924 | 47 | 312 | 7.0 | 19.0 | 0.00 | 0.00 | 0.00 | 1 | 1022.3 |
| 20260506164421 | 47 | 269 | 8.0 | 22.0 | 0.00 | 0.00 | 0.00 | 1 | 1022.3 |
| 20260506163920 | 47 | 302 | 15.0 | 25.0 | 0.00 | 0.00 | 0.00 | 1 | 1022.0 |
| 20260506163414 | 47 | 271 | 11.0 | 26.0 | 0.00 | 0.00 | 0.00 | 1 | 1022.0 |
| 20260506162909 | 47 | 268 | 13.0 | 18.0 | 0.00 | 0.00 | 0.00 | 1 | 1022.1 |
| 20260506162407 | 48 | 307 | 5.0 | 21.0 | 0.00 | 0.00 | 0.00 | 1 | 1022.3 |
| 20260506161904 | 47 | 331 | 5.0 | 15.0 | 0.00 | 0.00 | 0.00 | 1 | 1022.4 |
| 20260506161402 | 46 | 291 | 8.0 | 26.0 | 0.00 | 0.00 | 0.00 | 1 | 1022.5 |
| 20260506160859 | 46 | 246 | 11.0 | 20.0 | 0.00 | 0.00 | 0.00 | 1 | 1022.4 |
| 20260506160356 | 46 | 292 | 5.0 | 21.0 | 0.00 | 0.00 | 0.00 | 1 | 1022.4 |
| 20260506155854 | 46 | 261 | 6.0 | 17.0 | 0.00 | 0.00 | 0.00 | 1 | 1022.3 |
| 20260506155350 | 46 | 266 | 9.0 | 17.0 | 0.00 | 0.00 | 0.00 | 1 | 1022.5 |
| 20260506153508 | 45 | 302 | 5.0 | 19.0 | 0.00 | 0.00 | 0.00 | 1 | 1022.5 |
| 20260506153005 | 45 | 251 | 15.0 | 18.0 | 0.00 | 0.00 | 0.00 | 1 | 1022.5 |
| 20260506152502 | 45 | 331 | 4.0 | 14.0 | 0.00 | 0.00 | 0.00 | 1 | 1022.4 |
| 20260506152000 | 44 | 259 | 8.0 | 18.0 | 0.00 | 0.00 | 0.00 | 1 | 1022.5 |
| 20260506151458 | 43 | 248 | 5.0 | 13.0 | 0.00 | 0.00 | 0.00 | 1 | 1022.3 |
| 20260506150955 | 43 | 277 | 8.0 | 14.0 | 0.00 | 0.00 | 0.00 | 1 | 1022.5 |
| 20260506150450 | 44 | 294 | 5.0 | 10.0 | 0.00 | 0.00 | 0.00 | 1 | 1022.6 |
| 20260506145948 | 43 | 268 | 6.0 | 17.0 | 0.00 | 0.00 | 0.00 | 1 | 1022.8 |
| 20260506145444 | 42 | 223 | 7.0 | 14.0 | 0.00 | 0.00 | 0.00 | 1 | 1022.5 |
| 20260506144942 | 42 | 262 | 10.0 | 15.0 | 0.00 | 0.00 | 0.00 | 1 | 1022.8 |
| 20260506144438 | 42 | 272 | 9.0 | 15.0 | 0.00 | 0.00 | 0.00 | 1 | 1022.6 |
| 20260506143937 | 41 | 268 | 12.0 | 14.0 | 0.00 | 0.00 | 0.00 | 1 | 1022.7 |
| 20260506143433 | 41 | 289 | 9.0 | 16.0 | 0.00 | 0.00 | 0.00 | 1 | 1022.8 |
| 20260506142932 | 41 | 250 | 12.0 | 16.0 | 0.00 | 0.00 | 0.00 | 1 | 1022.7 |
| 20260506142429 | 40 | 269 | 10.0 | 18.0 | 0.00 | 0.00 | 0.00 | 1 | 1022.5 |
| 20260506141927 | 40 | 263 | 11.0 | 16.0 | 0.00 | 0.00 | 0.00 | 1 | 1022.6 |
| 20260506141425 | 39 | 273 | 11.0 | 14.0 | 0.00 | 0.00 | 0.00 | 1 | 1022.6 |
| 20260506140923 | 39 | 281 | 8.0 | 11.0 | 0.00 | 0.00 | 0.00 | 1 | 1022.8 |
| 20260506140420 | 38 | 248 | 4.0 | 9.0 | 0.00 | 0.00 | 0.00 | 1 | 1022.7 |
| 20260506135917 | 37 | 229 | 6.0 | 13.0 | 0.00 | 0.00 | 0.00 | 1 | 1022.6 |
| 20260506135414 | 36 | 252 | 6.0 | 11.0 | 0.00 | 0.00 | 0.00 | 1 | 1022.6 |
| 20260506134910 | 35 | 221 | 8.0 | 11.0 | 0.00 | 0.00 | 0.00 | 1 | 1022.7 |
| 20260506134406 | 35 | 288 | 8.0 | 9.0 | 0.00 | 0.00 | 0.00 | 1 | 1022.5 |
| 20260506133903 | 34 | 233 | 7.0 | 11.0 | 0.00 | 0.00 | 0.00 | 1 | 1022.6 |
| 20260506133400 | 33 | 239 | 7.0 | 11.0 | 0.00 | 0.00 | 0.00 | 1 | 1022.7 |
| 20260506132856 | 33 | 239 | 10.0 | 11.0 | 0.00 | 0.00 | 0.00 | 1 | 1022.5 |
| 20260506132354 | 32 | 254 | 10.0 | 13.0 | 0.00 | 0.00 | 0.00 | 1 | 1022.6 |
| 20260506131852 | 32 | 258 | 8.0 | 11.0 | 0.00 | 0.00 | 0.00 | 1 | 1022.7 |
| 20260506131348 | 31 | 258 | 6.0 | 9.0 | 0.00 | 0.00 | 0.00 | 1 | 1022.6 |
| 20260506130845 | 30 | 232 | 6.0 | 11.0 | 0.00 | 0.00 | 0.00 | 1 | 1022.7 |
| 20260506130341 | 30 | 248 | 5.0 | 9.0 | 0.00 | 0.00 | 0.00 | 1 | 1022.6 |
| 20260506125839 | 30 | 257 | 6.0 | 11.0 | 0.00 | 0.00 | 0.00 | 1 | 1022.5 |
| 20260506125338 | 29 | 240 | 7.0 | 11.0 | 0.00 | 0.00 | 0.00 | 1 | 1022.4 |
| 20260506124835 | 28 | 247 | 13.0 | 14.0 | 0.00 | 0.00 | 0.00 | 1 | 1022.3 |
| 20260506124332 | 28 | 295 | 5.0 | 9.0 | 0.00 | 0.00 | 0.00 | 1 | 1022.5 |
| 20260506123830 | 28 | 238 | 8.0 | 9.0 | 0.00 | 0.00 | 0.00 | 1 | 1022.4 |
| 20260506123328 | 27 | 229 | 5.0 | 7.0 | 0.00 | 0.00 | 0.00 | 1 | 1022.3 |
| 20260506122825 | 27 | 236 | 6.0 | 9.0 | 0.00 | 0.00 | 0.00 | 1 | 1022.5 |
| 20260506122322 | 27 | 244 | 8.0 | 9.0 | 0.00 | 0.00 | 0.00 | 1 | 1022.5 |
| 20260506121820 | 27 | 245 | 6.0 | 9.0 | 0.00 | 0.00 | 0.00 | 1 | 1022.0 |
| 20260506121317 | 27 | 231 | 9.0 | 13.0 | 0.00 | 0.00 | 0.00 | 1 | 1022.1 |
| 20260506120814 | 27 | 259 | 6.0 | 12.0 | 0.00 | 0.00 | 0.00 | 1 | 1022.1 |
| 20260506120312 | 27 | 259 | 6.0 | 8.0 | 0.00 | 0.00 | 0.00 | 1 | 1022.3 |
| 20260506115809 | 27 | 250 | 4.0 | 9.0 | 0.00 | 0.00 | 0.00 | 1 | 1021.8 |
| 20260506115307 | 26 | 268 | 4.0 | 6.0 | 0.00 | 0.00 | 0.00 | 1 | 1021.9 |
| 20260506114805 | 26 | 264 | 3.0 | 6.0 | 0.00 | 0.00 | 0.00 | 1 | 1021.9 |
| 20260506114302 | 26 | 264 | 6.0 | 7.0 | 0.00 | 0.00 | 0.00 | 1 | 1022.0 |
| 20260506113801 | 26 | 259 | 5.0 | 6.0 | 0.00 | 0.00 | 0.00 | 1 | 1021.8 |
| 20260506113258 | 27 | 265 | 5.0 | 8.0 | 0.00 | 0.00 | 0.00 | 1 | 1021.6 |
| 20260506112754 | 27 | 246 | 5.0 | 7.0 | 0.00 | 0.00 | 0.00 | 1 | 1021.6 |
| 20260506112252 | 27 | 259 | 4.0 | 10.0 | 0.00 | 0.00 | 0.00 | 1 | 1021.5 |
| 20260506111749 | 27 | 247 | 8.0 | 10.0 | 0.00 | 0.00 | 0.00 | 1 | 1021.7 |
| 20260506111247 | 27 | 235 | 6.0 | 9.0 | 0.00 | 0.00 | 0.00 | 1 | 1021.6 |
| 20260506110743 | 27 | 241 | 7.0 | 11.0 | 0.00 | 0.00 | 0.00 | 1 | 1021.6 |
| 20260506110241 | 27 | 249 | 7.0 | 9.0 | 0.00 | 0.00 | 0.00 | 1 | 1021.6 |
| 20260506105737 | 27 | 247 | 7.0 | 11.0 | 0.00 | 0.00 | 0.00 | 1 | 1021.5 |
| 20260506105235 | 27 | 242 | 9.0 | 9.0 | 0.00 | 0.00 | 0.00 | 1 | 1021.6 |
| 20260506104732 | 27 | 236 | 9.0 | 11.0 | 0.00 | 0.00 | 0.00 | 1 | 1021.5 |
| 20260506104230 | 27 | 248 | 9.0 | 9.0 | 0.00 | 0.00 | 0.00 | 1 | 1021.4 |
| 20260506103727 | 27 | 242 | 6.0 | 9.0 | 0.00 | 0.00 | 0.00 | 1 | 1021.5 |
| 20260506103224 | 27 | 241 | 7.0 | 9.0 | 0.00 | 0.00 | 0.00 | 1 | 1021.4 |
| 20260506102722 | 27 | 232 | 7.0 | 10.0 | 0.00 | 0.00 | 0.00 | 1 | 1021.5 |
| 20260506102220 | 27 | 225 | 8.0 | 10.0 | 0.00 | 0.00 | 0.00 | 1 | 1021.6 |
| 20260506101716 | 27 | 241 | 10.0 | 11.0 | 0.00 | 0.00 | 0.00 | 1 | 1021.7 |
| 20260506101213 | 27 | 237 | 10.0 | 11.0 | 0.00 | 0.00 | 0.00 | 1 | 1021.4 |
| 20260506100711 | 27 | 235 | 10.0 | 12.0 | 0.00 | 0.00 | 0.00 | 1 | 1021.2 |
| 20260506100209 | 28 | 236 | 9.0 | 11.0 | 0.00 | 0.00 | 0.00 | 1 | 1021.3 |
| 20260506095707 | 28 | 252 | 8.0 | 11.0 | 0.00 | 0.00 | 0.00 | 1 | 1021.4 |
| 20260506095203 | 28 | 243 | 9.0 | 9.0 | 0.00 | 0.00 | 0.00 | 1 | 1021.3 |
| 20260506094701 | 28 | 247 | 5.0 | 8.0 | 0.00 | 0.00 | 0.00 | 1 | 1021.3 |
| 20260506094158 | 28 | 235 | 8.0 | 8.0 | 0.00 | 0.00 | 0.00 | 1 | 1021.3 |
| 20260506093657 | 28 | 234 | 7.0 | 10.0 | 0.00 | 0.00 | 0.00 | 1 | 1021.4 |
| 20260506093153 | 28 | 225 | 9.0 | 10.0 | 0.00 | 0.00 | 0.00 | 1 | 1021.2 |
| 20260506092651 | 29 | 244 | 9.0 | 11.0 | 0.00 | 0.00 | 0.00 | 1 | 1021.1 |
| 20260506092148 | 29 | 236 | 9.0 | 10.0 | 0.00 | 0.00 | 0.00 | 1 | 1021.2 |
| 20260506091647 | 29 | 240 | 8.0 | 11.0 | 0.00 | 0.00 | 0.00 | 1 | 1021.3 |
| 20260506091143 | 29 | 252 | 9.0 | 9.0 | 0.00 | 0.00 | 0.00 | 1 | 1021.3 |
| 20260506090641 | 29 | 228 | 5.0 | 9.0 | 0.00 | 0.00 | 0.00 | 1 | 1021.1 |
| 20260506090137 | 30 | 247 | 7.0 | 8.0 | 0.00 | 0.00 | 0.00 | 1 | 1021.1 |
| 20260506085634 | 31 | 234 | 6.0 | 8.0 | 0.00 | 0.00 | 0.00 | 1 | 1021.2 |